Weather History for Imperial, NE

Change the Weather History Date:

Friday, October 4, 2013

  Actual Average Record
Temperature  
Mean Temperature 45 °F 56 °F  
Max Temperature 53 °F 71 °F 91 °F (1938)
Min Temperature 36 °F 41 °F 27 °F (1953)
Degree Days  
Heating Degree Days 20 9  
Month to date heating degree days 34 35  
Cooling Degree Days 0 0  
Month to date cooling degree days 0 3  
Year to date cooling degree days 1166 960  
Moisture  
Dew Point 40 °F    
Average Humidity 81    
Maximum Humidity 100    
Minimum Humidity 62    
Precipitation  
Precipitation 0.09 in 0.05 in 1.50 in (1930)
Sea Level Pressure  
Sea Level Pressure 29.87 in    
Wind  
Wind Speed 22 mph (NNW)    
Max Wind Speed 36 mph    
Max Gust Speed 46 mph    
Visibility 7 miles    
Events Rain    
T = Trace of Precipitation, MM = Missing Value Source: NWS Daily Summary

Daily Weather History Graph

Daily Weather History Graph

Search for Another Location

Airport:

Trip Planner

Search our weather history database for the weather conditions in past years. The results will help you decide how hot, cold, wet, or windy it might be!

Date:

Astronomy

Oct. 04, 2013 Rise Set
Actual Time 6:46 AM MDT 6:23 PM MDT
Civil Twilight 6:19 AM MDT 6:50 PM MDT
Nautical Twilight 5:47 AM MDT 7:21 PM MDT
Astronomical Twilight 5:15 AM MDT 7:53 PM MDT
Moon 6:23 AM MDT (10/4) 6:06 PM MDT (10/4)
Length of Visible Light 12h 31m
Length of Day
11h 36m
Waning Crescent, 0% of the Moon is Illuminated
Oct 4
Waning Crescent
Oct 4
New
Oct 11
First Quarter
Oct 18
Full
Oct 26
Last Quarter

Hourly Weather History & Observations

Time (MDT) Temp. Windchill Dew Point Humidity Pressure Visibility Wind Dir Wind Speed Gust Speed Precip Events Conditions
12:27 AM 51.8 °F - 51.8 °F 100% 29.71 in 1.2 mi NE 13.8 mph - 0.01 in Rain Light Rain
12:53 AM 52.0 °F - 52.0 °F 100% 29.71 in 2.0 mi NNE 13.8 mph - 0.02 in Rain Light Rain
1:41 AM 51.8 °F - 51.8 °F 100% 29.73 in 3.0 mi North 11.5 mph - 0.02 in Rain Light Rain
1:53 AM 52.0 °F - 52.0 °F 100% 29.72 in 4.0 mi NNE 11.5 mph - 0.02 in   Overcast
2:53 AM 52.0 °F - 52.0 °F 100% 29.68 in 4.0 mi NNE 15.0 mph - N/A   Overcast
3:53 AM 53.1 °F - 52.0 °F 96% 29.69 in 7.0 mi NNE 11.5 mph - N/A   Overcast
4:53 AM 53.1 °F - 52.0 °F 96% 29.67 in 9.0 mi NE 16.1 mph 21.9 mph N/A   Overcast
5:53 AM 52.0 °F - 51.1 °F 97% 29.68 in 10.0 mi NE 10.4 mph - N/A   Overcast
6:53 AM 52.0 °F - 51.1 °F 97% 29.69 in 4.0 mi North 11.5 mph - N/A   Overcast
7:08 AM 51.8 °F - 51.8 °F 100% 29.70 in 2.0 mi North 9.2 mph - N/A   Overcast
7:40 AM 51.8 °F - 51.8 °F 100% 29.72 in 1.5 mi NNW 6.9 mph - 0.01 in Rain Light Rain
7:53 AM 52.0 °F - 51.1 °F 97% 29.71 in 1.2 mi NNW 10.4 mph - 0.02 in Rain Light Rain
8:29 AM 51.8 °F - 51.8 °F 100% 29.72 in 2.5 mi NNW 11.5 mph - 0.04 in Rain Light Rain
8:45 AM 51.8 °F - 50.0 °F 94% 29.72 in 3.0 mi NNW 12.7 mph - 0.04 in   Overcast
8:53 AM 51.1 °F - 50.0 °F 96% 29.73 in 3.0 mi NW 11.5 mph - 0.04 in   Overcast
9:43 AM 48.2 °F - 46.4 °F 93% 29.78 in 1.8 mi WNW 17.3 mph 25.3 mph 0.00 in Rain Light Rain
9:53 AM 46.9 °F - 46.0 °F 97% 29.78 in 1.5 mi WNW 17.3 mph 27.6 mph 0.01 in Rain Light Rain
10:10 AM 46.4 °F 38.1 °F 44.6 °F 93% 29.79 in 2.0 mi WNW 24.2 mph 38.0 mph 0.00 in Rain Light Rain
10:14 AM 46.4 °F 38.3 °F 42.8 °F 87% 29.79 in 3.0 mi NW 23.0 mph 33.4 mph 0.00 in Rain Light Rain
10:53 AM 43.0 °F 32.7 °F 39.9 °F 89% 29.82 in 10.0 mi NW 28.8 mph 43.7 mph 0.00 in   Overcast
11:51 AM 42.8 °F 32.3 °F 37.4 °F 81% 29.85 in 10.0 mi NW 29.9 mph 42.6 mph N/A   Overcast
11:53 AM 42.1 °F 31.9 °F 37.0 °F 82% 29.86 in 10.0 mi NW 26.5 mph 42.6 mph N/A   Overcast
12:35 PM 44.6 °F 34.6 °F 35.6 °F 71% 29.87 in 10.0 mi NW 31.1 mph 39.1 mph N/A   Scattered Clouds
12:51 PM 46.4 °F 37.7 °F 35.6 °F 66% 29.88 in 10.0 mi NW 26.5 mph 36.8 mph N/A   Mostly Cloudy
12:53 PM 46.0 °F 37.0 °F 36.0 °F 68% 29.88 in 10.0 mi WNW 27.6 mph 39.1 mph N/A   Mostly Cloudy
1:53 PM 45.0 °F 35.4 °F 33.1 °F 63% 29.90 in 10.0 mi NW 28.8 mph 36.8 mph N/A   Overcast
2:37 PM 44.6 °F 35.7 °F 32.0 °F 61% 29.93 in 10.0 mi NW 24.2 mph 35.7 mph N/A   Overcast
2:53 PM 45.0 °F 35.6 °F 32.0 °F 60% 29.94 in 10.0 mi WNW 27.6 mph 36.8 mph N/A   Overcast
3:53 PM 43.0 °F 32.5 °F 30.9 °F 62% 29.98 in 10.0 mi NW 29.9 mph 42.6 mph 0.00 in   Mostly Cloudy
4:53 PM 41.0 °F 29.8 °F 34.0 °F 76% 30.03 in 10.0 mi NW 29.9 mph 42.6 mph 0.00 in Rain Light Rain
5:10 PM 41.0 °F 29.5 °F 33.8 °F 76% 30.02 in 10.0 mi NW 32.2 mph 44.9 mph 0.00 in Rain Light Rain
5:53 PM 41.0 °F 30.0 °F 32.0 °F 70% 30.04 in 10.0 mi NW 28.8 mph 42.6 mph 0.00 in   Scattered Clouds
6:53 PM 37.9 °F 26.3 °F 30.0 °F 73% 30.05 in 10.0 mi NW 26.5 mph 40.3 mph N/A   Partly Cloudy
7:53 PM 37.0 °F 24.5 °F 30.0 °F 76% 30.07 in 10.0 mi NW 29.9 mph 39.1 mph N/A   Partly Cloudy
8:12 PM 37.4 °F 25.6 °F 30.2 °F 75% 30.05 in 10.0 mi NW 26.5 mph 38.0 mph N/A   Mostly Cloudy
8:53 PM 37.0 °F 24.7 °F 28.9 °F 73% 30.08 in 10.0 mi NW 28.8 mph 38.0 mph N/A   Overcast
9:19 PM 35.6 °F 23.2 °F 28.4 °F 75% 30.05 in 10.0 mi NW 26.5 mph 36.8 mph N/A   Scattered Clouds
9:53 PM 36.0 °F 24.2 °F 28.9 °F 76% 30.09 in 10.0 mi NW 24.2 mph 36.8 mph N/A   Partly Cloudy
10:18 PM 37.4 °F 25.9 °F 28.4 °F 70% 30.07 in 10.0 mi NW 25.3 mph 38.0 mph N/A   Mostly Cloudy
10:41 PM 35.6 °F 22.5 °F 28.4 °F 75% 30.06 in 10.0 mi NW 29.9 mph 43.7 mph N/A   Scattered Clouds
10:53 PM 36.0 °F 23.9 °F 28.0 °F 73% 30.10 in 10.0 mi NW 25.3 mph 35.7 mph N/A   Partly Cloudy
11:53 PM 36.0 °F 24.2 °F 28.0 °F 73% 30.11 in 10.0 mi NW 24.2 mph 35.7 mph N/A   Scattered Clouds